When you browse on this site, cookies collect data to enhance your experience and personalize the content and advertising you see.
Visit our Privacy Policy to learn more. By continuing to use the site, you agree to this use of cookies and data.
  • In Netherlands
  • List of Countries
  • For 7 days
  • Water Temperature
  • Satellite Maps
  • Weather Map
  • Weather Widgets
  • user-avatar
    Login

    Hourly Weather Krasnaya

    Today, 24 April, Wednesday

    Time Temperature Precipitation Wind Pressure Humidity
    00:00 +12°C° 0 mm 2 mps 755 mmHg 62%
    01:00 +10°C° 0 mm 2 mps 755 mmHg 63%
    02:00 +10°C° 0 mm 2 mps 755 mmHg 65%
    03:00 +9°C° 0 mm 2 mps 755 mmHg 67%
    04:00 +9°C° 0 mm 2 mps 756 mmHg 68%
    05:00 +9°C° 0 mm 2 mps 756 mmHg 70%
    06:00 +9°C° 0 mm 2 mps 756 mmHg 71%
    07:00 +12°C° 0 mm 2 mps 756 mmHg 65%
    08:00 +12°C° 0 mm 3 mps 756 mmHg 60%
    09:00 +14°C° 0 mm 3 mps 756 mmHg 54%
    10:00 +17°C° 0 mm 3 mps 756 mmHg 49%
    11:00 +18°C° 0 mm 3 mps 756 mmHg 44%
    12:00 +20°C° 0 mm 3 mps 756 mmHg 39%
    13:00 +20°C° 0 mm 3 mps 755 mmHg 37%
    14:00 +21°C° 0 mm 3 mps 755 mmHg 35%
    15:00 +22°C° 0 mm 3 mps 755 mmHg 34%
    16:00 +21°C° 0 mm 3 mps 755 mmHg 36%
    17:00 +21°C° 0 mm 3 mps 755 mmHg 38%
    18:00 +21°C° 0 mm 2 mps 755 mmHg 40%
    19:00 +19°C° 0 mm 2 mps 755 mmHg 43%
    20:00 +17°C° 0 mm 2 mps 755 mmHg 47%
    21:00 +16°C° 0 mm 2 mps 755 mmHg 51%
    22:00 +15°C° 0 mm 2 mps 755 mmHg 53%
    23:00 +14°C° 0 mm 2 mps 755 mmHg 55%

    Tomorrow, 25 April, Thursday

    Time Temperature Precipitation Wind Pressure Humidity
    00:00 +14°C° 0 mm 2 mps 755 mmHg 58%
    01:00 +13°C° 0 mm 2 mps 755 mmHg 59%
    02:00 +13°C° 0 mm 2 mps 755 mmHg 61%
    03:00 +12°C° 0 mm 2 mps 755 mmHg 62%
    04:00 +12°C° 0 mm 2 mps 755 mmHg 64%
    05:00 +12°C° 0 mm 2 mps 755 mmHg 65%
    06:00 +12°C° 0 mm 2 mps 755 mmHg 67%
    07:00 +14°C° 0 mm 2 mps 755 mmHg 62%
    08:00 +16°C° 0 mm 2 mps 755 mmHg 56%
    09:00 +18°C° 0 mm 2 mps 755 mmHg 51%
    10:00 +19°C° 0 mm 2 mps 755 mmHg 46%
    11:00 +20°C° 0 mm 3 mps 755 mmHg 42%
    12:00 +22°C° 0 mm 3 mps 755 mmHg 37%
    13:00 +22°C° 0 mm 3 mps 755 mmHg 36%
    14:00 +24°C° 0 mm 3 mps 754 mmHg 35%
    15:00 +24°C° 0 mm 3 mps 754 mmHg 34%
    16:00 +24°C° 0 mm 2 mps 754 mmHg 37%
    17:00 +23°C° 0 mm 2 mps 753 mmHg 39%
    18:00 +23°C° 0 mm 2 mps 753 mmHg 41%
    19:00 +22°C° 0 mm 1 mps 753 mmHg 44%
    20:00 +21°C° 0 mm 1 mps 753 mmHg 46%
    21:00 +20°C° 0 mm 1 mps 753 mmHg 49%
    22:00 +19°C° 0 mm 1 mps 753 mmHg 49%
    23:00 +19°C° 0 mm 1 mps 753 mmHg 50%

    Day after tomorrow, 26 April, Friday

    Time Temperature Precipitation Wind Pressure Humidity
    00:00 +16°C° 0 mm 0 mps 753 mmHg 51%
    01:00 +16°C° 0 mm 0 mps 753 mmHg 53%
    02:00 +16°C° 0 mm 1 mps 753 mmHg 54%
    03:00 +16°C° 0 mm 1 mps 753 mmHg 55%
    04:00 +15°C° 0.3 mm 1 mps 753 mmHg 60%
    05:00 +14°C° 0.3 mm 0 mps 753 mmHg 64%
    06:00 +13°C° 0.3 mm 0 mps 753 mmHg 68%
    07:00 +15°C° 0.3 mm 1 mps 753 mmHg 66%
    08:00 +16°C° 0.3 mm 1 mps 753 mmHg 63%
    09:00 +17°C° 0.3 mm 2 mps 753 mmHg 61%
    10:00 +18°C° 0.1 mm 2 mps 753 mmHg 58%
    11:00 +19°C° 0.1 mm 2 mps 753 mmHg 54%
    12:00 +20°C° 0.1 mm 3 mps 752 mmHg 51%
    13:00 +20°C° 0.1 mm 3 mps 752 mmHg 49%
    14:00 +21°C° 0.1 mm 2 mps 752 mmHg 46%
    15:00 +21°C° 0.1 mm 2 mps 752 mmHg 44%
    16:00 +20°C° 1 mm 2 mps 751 mmHg 50%
    17:00 +19°C° 1 mm 2 mps 751 mmHg 56%
    18:00 +18°C° 1 mm 2 mps 751 mmHg 62%
    19:00 +18°C° 0.3 mm 1 mps 751 mmHg 65%
    20:00 +16°C° 0.3 mm 1 mps 750 mmHg 68%
    21:00 +15°C° 0.3 mm 1 mps 750 mmHg 71%
    22:00 +15°C° 0 mm 1 mps 750 mmHg 73%
    23:00 +14°C° 0 mm 1 mps 750 mmHg 75%

    27 April, Saturday

    Time Temperature Precipitation Wind Pressure Humidity
    00:00 +14°C° 0 mm 1 mps 750 mmHg 77%
    01:00 +14°C° 0 mm 2 mps 750 mmHg 77%
    02:00 +13°C° 0 mm 2 mps 749 mmHg 77%
    03:00 +13°C° 0 mm 2 mps 749 mmHg 78%
    04:00 +13°C° 0 mm 2 mps 749 mmHg 78%
    05:00 +13°C° 0 mm 2 mps 749 mmHg 79%
    06:00 +13°C° 0 mm 2 mps 748 mmHg 79%
    07:00 +14°C° 0 mm 2 mps 748 mmHg 75%
    08:00 +14°C° 0 mm 3 mps 748 mmHg 70%
    09:00 +16°C° 0 mm 3 mps 748 mmHg 66%
    10:00 +18°C° 0 mm 3 mps 748 mmHg 58%
    11:00 +19°C° 0 mm 4 mps 747 mmHg 49%
    12:00 +21°C° 0 mm 4 mps 747 mmHg 41%
    13:00 +21°C° 0 mm 4 mps 747 mmHg 41%
    14:00 +21°C° 0 mm 4 mps 746 mmHg 42%
    15:00 +21°C° 0 mm 3 mps 746 mmHg 43%
    16:00 +20°C° 0 mm 3 mps 746 mmHg 46%
    17:00 +20°C° 0 mm 2 mps 745 mmHg 48%
    18:00 +20°C° 0 mm 2 mps 745 mmHg 51%
    19:00 +19°C° 0 mm 2 mps 745 mmHg 54%
    20:00 +18°C° 0 mm 2 mps 745 mmHg 58%
    21:00 +17°C° 0 mm 3 mps 745 mmHg 62%
    22:00 +16°C° 0 mm 3 mps 745 mmHg 66%
    23:00 +14°C° 0 mm 3 mps 745 mmHg 71%

    28 April, Sunday

    Time Temperature Precipitation Wind Pressure Humidity
    00:00 +12°C° 0 mm 3 mps 745 mmHg 76%
    01:00 +12°C° 0 mm 3 mps 745 mmHg 78%
    02:00 +13°C° 0 mm 2 mps 744 mmHg 79%
    03:00 +13°C° 0 mm 2 mps 744 mmHg 81%
    04:00 +12°C° 0 mm 2 mps 744 mmHg 83%
    05:00 +12°C° 0 mm 2 mps 745 mmHg 85%
    06:00 +12°C° 0 mm 2 mps 745 mmHg 88%
    07:00 +13°C° 0 mm 2 mps 745 mmHg 83%
    08:00 +15°C° 0 mm 2 mps 745 mmHg 78%
    09:00 +16°C° 0 mm 2 mps 745 mmHg 73%
    10:00 +15°C° 0 mm 4 mps 746 mmHg 72%
    11:00 +15°C° 0 mm 5 mps 746 mmHg 72%
    12:00 +14°C° 0 mm 6 mps 746 mmHg 72%
    13:00 +14°C° 0 mm 6 mps 747 mmHg 69%
    14:00 +14°C° 0 mm 6 mps 747 mmHg 65%
    15:00 +14°C° 0 mm 6 mps 747 mmHg 62%
    16:00 +14°C° 0 mm 6 mps 747 mmHg 59%
    17:00 +14°C° 0 mm 6 mps 747 mmHg 57%
    18:00 +14°C° 0 mm 6 mps 748 mmHg 54%
    19:00 +12°C° 0 mm 5 mps 748 mmHg 54%
    20:00 +10°C° 0 mm 5 mps 749 mmHg 53%
    21:00 +9°C° 0 mm 5 mps 749 mmHg 52%
    22:00 +8°C° 0 mm 5 mps 750 mmHg 53%
    23:00 +7°C° 0 mm 5 mps 750 mmHg 54%

    29 April, Monday

    Time Temperature Precipitation Wind Pressure Humidity
    00:00 +6°C° 0 mm 5 mps 750 mmHg 56%
    01:00 +5°C° 0 mm 4 mps 751 mmHg 59%
    02:00 +5°C° 0 mm 4 mps 751 mmHg 62%
    03:00 +4°C° 0 mm 4 mps 751 mmHg 65%
    04:00 +4°C° 0 mm 4 mps 752 mmHg 64%
    05:00 +3°C° 0 mm 4 mps 752 mmHg 63%
    06:00 +3°C° 0 mm 4 mps 752 mmHg 63%
    07:00 +3°C° 0 mm 5 mps 753 mmHg 56%
    08:00 +6°C° 0 mm 5 mps 753 mmHg 48%
    09:00 +7°C° 0 mm 6 mps 753 mmHg 41%
    10:00 +8°C° 0 mm 6 mps 753 mmHg 39%
    11:00 +9°C° 0 mm 6 mps 753 mmHg 37%
    12:00 +9°C° 0 mm 6 mps 753 mmHg 35%
    13:00 +10°C° 0 mm 6 mps 753 mmHg 35%
    14:00 +10°C° 0 mm 5 mps 753 mmHg 35%
    15:00 +12°C° 0 mm 5 mps 753 mmHg 35%
    16:00 +10°C° 0 mm 5 mps 753 mmHg 36%
    17:00 +11°C° 0 mm 4 mps 753 mmHg 38%
    18:00 +11°C° 0 mm 4 mps 753 mmHg 39%
    19:00 +9°C° 0 mm 3 mps 753 mmHg 43%
    20:00 +8°C° 0 mm 3 mps 753 mmHg 47%
    21:00 +7°C° 0 mm 2 mps 753 mmHg 51%
    22:00 +6°C° 0 mm 2 mps 754 mmHg 53%
    23:00 +6°C° 0 mm 2 mps 754 mmHg 54%
    Show more